Location: Carbonear
(47.7333°N, 53.2500°W)
Time: 12:43:02
(UTC+00:00)

XW-2D - Pass Details

Date: 08 December 2022
Orbit: 488 x 502 km, 97.5° (Epoch: 06 February)

Event Time Altitude Azimuth Distance (km) Brightness Sun altitude
Rises 18:51:44 0° 90° (E) 2,577 ? 5.6°
Reaches altitude 10° 20:24:21 10° 146° (SSE) 1,691 ? -7.1°
Maximum altitude 20:27:51 47° 72° (ENE) 662 ? -7.7°
Drops below altitude 10° 20:31:22 10° 358° (N) 1,695 ? -8.2°
Sets 20:33:29 0° 353° (N) 2,580 ? -8.5°
